Regional Weather Roundup
Issued by NWS Albany, NY

Home | Current Version | Previous Version | Graphics & Text | Print | Product List | Glossary Off
Versions: 1 2 3 4 5 6 7 8 9 10 11 12 13 14 15 16 17 18 19 20 21 22 23 24 25 26 27 28 29 30 31 32 33 34 35 36 37 38 39 40 41 42 43 44 45 46 47 48

000
ASUS41 KALY 300710
RWRALY

NEW YORK STATE HOURLY WEATHER ROUNDUP
NATIONAL WEATHER SERVICE ALBANY NY
200 AM EST FRI JAN 30 2015

NOTE: "FAIR" INDICATES FEW OR NO CLOUDS BELOW 12,000 FEET WITH NO
SIGNIFICANT WEATHER AND/OR NO OBSTRUCTIONS TO VISIBILITY.

NYZ032-033-038>043-046>054-057>066-NYZ062>081-300800-
EAST


CITY           SKY/WX    TMP DP  RH WIND       PRES   REMARKS
ALBANY         LGT SNOW  28  23  81 S10       29.87F WCI  19
GLENS FALLS    LGT SNOW  26  23  88 CALM      29.86F FOG
POUGHKEEPSIE   SNOW      30  28  92 CALM      29.91F VSB 1/2
NEWBURGH       LGT SNOW  27  27 100 CALM      29.90F VSB 1
MONTGOMERY     LGT SNOW  26  25  96 N5        29.89F VSB 1   WCI  20
WHITE PLAINS   LGT SNOW  30  28  92 S6        29.91F FOG     WCI  24
ISLIP          CLOUDY    34  30  85 SW5       29.93F WCI  30
NEW YORK CITY  LGT SNOW  32  29  88 SW9       29.94F FOG     WCI  24
CENTRAL PARK   LGT SNOW  33  28  81 S8        29.94F WCI  26
$$

NYZ005>009-017-018-044>046-055-056-300800-
CENTRAL


CITY           SKY/WX    TMP DP  RH WIND       PRES   REMARKS
FULTON         LGT SNOW  29  25  85 SW9       29.80R FOG     WCI  20
SYRACUSE       LGT SNOW  26  26 100 SW8       29.80S VSB 1   WCI  18
ROME           LGT SNOW  25  23  92 SE7       29.84S FOG     WCI  17
ELMIRA         CLOUDY    25  24  96 CALM      29.82S FOG
BINGHAMTON     LGT SNOW  23  21  92 S8        29.78R FOG     WCI  14
MONTICELLO     CLOUDY    21  21 100 E3        29.84F
$$

NYZ026>034-041>043-300800-
NORTH


CITY           SKY/WX    TMP DP  RH WIND       PRES   REMARKS
WATERTOWN      LGT SNOW  31  26  82 S10G21    29.76S WCI  22
FORT DRUM      NOT AVBL
MASSENA        LGT SNOW  26  26 100 CALM      29.78S FOG
SARANAC LAKE   CLOUDY    24  20  84 SW10      29.69F WCI  14
PLATTSBURGH    CLOUDY    27  21  78 S12       29.80F WCI  17
$$

NYZ001>004-010>016-019>021-300800-
WEST


CITY           SKY/WX    TMP DP  RH WIND       PRES   REMARKS
NIAGARA FALLS  FLURRIES  29  24  82 NW13      29.87R WCI  19
BUFFALO        FLURRIES  30  25  81 W14       29.87R WCI  19
DUNKIRK        CLOUDY    30  28  92 W12G22    29.92R WCI  20
JAMESTOWN      CLOUDY    27  23  86 W14G21    29.85R WCI  15
WELLSVILLE     CLOUDY    26  22  84 NW15      29.79R WCI  14
ROCHESTER      LGT SNOW  31  27  85 W12       29.84R FOG     WCI  22
PENN YAN       CLOUDY    28  24  85 S7        29.81R WCI  21
$$

             KEY
       WCI = WIND CHILL INDEX
       VSB = VISIBILITY
       HX  = HEAT INDEX
$$


USA.gov is the U.S. government's official web portal to all federal, state and local government web resources and services.